Time,TemperatureF,DewpointF,PressureIn,WindDirection,WindDirectionDegrees,WindSpeedMPH,WindSpeedGustMPH,Humidity,HourlyPrecipIn,Conditions,Clouds,dailyrainin,SoftwareType,DateUTC
2013-01-08 00:02:00,46.0,15.0,30.01,NNE,18,0.0,1.0,28,0.00,,,0.00,,2013-01-08 06:02:00,
2013-01-08 00:11:00,46.0,15.0,30.01,NNE,18,0.0,1.0,28,0.00,,,0.00,,2013-01-08 06:11:00,
2013-01-08 00:22:00,46.0,15.0,30.01,NNE,18,0.0,1.0,28,0.00,,,0.00,,2013-01-08 06:22:00,
2013-01-08 00:32:00,46.0,15.0,30.01,NNE,18,0.0,1.0,28,0.00,,,0.00,,2013-01-08 06:32:00,
2013-01-08 00:42:00,46.0,15.0,30.01,NNE,18,0.0,1.0,28,0.00,,,0.00,,2013-01-08 06:42:00,
2013-01-08 16:53:00,64.0,29.0,30.09,NE,53,0.0,5.0,27,0.00,,,0.00,,2013-01-08 22:53:00,
2013-01-08 17:02:00,65.0,31.0,30.09,NE,43,0.0,4.0,28,0.00,,,0.00,,2013-01-08 23:02:00,
2013-01-08 17:12:00,65.0,31.0,30.09,NE,43,0.0,4.0,28,0.00,,,0.00,,2013-01-08 23:12:00,
2013-01-08 17:22:00,65.0,30.0,30.09,North,5,2.0,9.0,27,0.00,,,0.00,,2013-01-08 23:22:00,
2013-01-08 17:32:00,65.0,30.0,30.09,North,5,2.0,5.0,27,0.00,,,0.00,,2013-01-08 23:32:00,
2013-01-08 17:42:00,65.0,30.0,30.09,North,5,2.0,5.0,27,0.00,,,0.00,,2013-01-08 23:42:00,
2013-01-08 17:53:00,65.0,30.0,30.09,NNE,12,1.0,5.0,27,0.00,,,0.00,,2013-01-08 23:53:00,
2013-01-08 18:02:00,64.0,30.0,30.10,NW,315,2.0,4.0,28,0.00,,,0.00,,2013-01-09 00:02:00,
2013-01-08 18:12:00,64.0,30.0,30.10,NW,315,2.0,4.0,28,0.00,,,0.00,,2013-01-09 00:12:00,
2013-01-08 18:22:00,63.0,30.0,30.11,North,355,1.0,5.0,29,0.00,,,0.00,,2013-01-09 00:22:00,
2013-01-08 18:32:00,63.0,30.0,30.11,North,355,1.0,6.0,29,0.00,,,0.00,,2013-01-09 00:32:00,
2013-01-08 18:42:00,63.0,30.0,30.11,North,355,1.0,6.0,29,0.00,,,0.00,,2013-01-09 00:42:00,
2013-01-08 18:52:00,62.0,30.0,30.11,North,355,0.0,3.0,30,0.00,,,0.00,,2013-01-09 00:52:00,
2013-01-08 19:02:00,61.0,30.0,30.11,NNW,333,0.0,4.0,31,0.00,,,0.00,,2013-01-09 01:02:00,
2013-01-08 19:12:00,61.0,30.0,30.11,NNW,333,0.0,4.0,31,0.00,,,0.00,,2013-01-09 01:12:00,
2013-01-08 19:22:00,60.0,30.0,30.11,NE,41,0.0,2.0,32,0.00,,,0.00,,2013-01-09 01:22:00,
2013-01-08 19:32:00,58.0,30.0,30.11,NE,40,0.0,1.0,34,0.00,,,0.00,,2013-01-09 01:32:00,
2013-01-08 19:42:00,58.0,30.0,30.11,NE,40,0.0,1.0,34,0.00,,,0.00,,2013-01-09 01:42:00,
2013-01-08 19:52:00,56.0,29.0,30.12,NE,42,0.0,0.0,36,0.00,,,0.00,,2013-01-09 01:52:00,
2013-01-08 20:02:00,55.0,30.0,30.13,NE,41,0.0,1.0,38,0.00,,,0.00,,2013-01-09 02:02:00,
2013-01-08 20:22:00,57.0,30.0,30.13,NNE,25,0.0,1.0,36,0.00,,,0.00,,2013-01-09 02:22:00,
2013-01-08 20:32:00,56.0,29.0,30.13,NNW,339,0.0,3.0,36,0.00,,,0.00,,2013-01-09 02:32:00,
2013-01-08 20:42:00,56.0,29.0,30.13,NNW,339,0.0,3.0,36,0.00,,,0.00,,2013-01-09 02:42:00,
2013-01-08 20:52:00,56.0,29.0,30.14,North,5,0.0,2.0,36,0.00,,,0.00,,2013-01-09 02:52:00,
2013-01-08 21:02:00,55.0,30.0,30.14,North,355,0.0,1.0,38,0.00,,,0.00,,2013-01-09 03:02:00,
2013-01-08 21:11:00,55.0,30.0,30.14,North,355,0.0,1.0,38,0.00,,,0.00,,2013-01-09 03:11:00,
2013-01-08 21:22:00,56.0,30.0,30.14,North,355,1.0,4.0,37,0.00,,,0.00,,2013-01-09 03:22:00,
2013-01-08 21:32:00,56.0,30.0,30.14,NNE,30,0.0,3.0,37,0.00,,,0.00,,2013-01-09 03:32:00,
2013-01-08 21:42:00,56.0,30.0,30.14,NNE,30,0.0,3.0,37,0.00,,,0.00,,2013-01-09 03:42:00,
2013-01-08 21:52:00,56.0,31.0,30.15,NNW,348,0.0,5.0,38,0.00,,,0.00,,2013-01-09 03:52:00,
2013-01-08 22:02:00,54.0,30.0,30.16,NNE,20,0.0,1.0,40,0.00,,,0.00,,2013-01-09 04:02:00,
2013-01-08 22:12:00,54.0,30.0,30.16,NNE,20,0.0,1.0,40,0.00,,,0.00,,2013-01-09 04:12:00,
2013-01-08 22:22:00,52.0,31.0,30.16,ENE,67,0.0,0.0,44,0.00,,,0.00,,2013-01-09 04:22:00,
2013-01-08 22:32:00,50.0,31.0,30.17,ENE,67,0.0,1.0,47,0.00,,,0.00,,2013-01-09 04:32:00,
2013-01-08 22:52:00,49.0,31.0,30.17,ENE,67,0.0,0.0,49,0.00,,,0.00,,2013-01-09 04:52:00,
2013-01-08 23:03:00,52.0,31.0,30.18,NNE,13,0.0,2.0,44,0.00,,,0.00,,2013-01-09 05:03:00,
2013-01-08 23:12:00,52.0,31.0,30.18,NNE,13,0.0,2.0,44,0.00,,,0.00,,2013-01-09 05:12:00,
2013-01-08 23:22:00,50.0,30.0,30.19,North,355,0.0,0.0,46,0.00,,,0.00,,2013-01-09 05:22:00,
2013-01-08 23:32:00,50.0,31.0,30.19,NE,55,0.0,1.0,47,0.00,,,0.00,,2013-01-09 05:32:00,
2013-01-08 23:42:00,50.0,31.0,30.19,NE,55,0.0,1.0,47,0.00,,,0.00,,2013-01-09 05:42:00,
2013-01-08 23:52:00,50.0,30.0,30.19,NW,323,0.0,1.0,46,0.00,,,0.00,,2013-01-09 05:52:00,